Weather Roundup
Issued by NWS Chicago, IL

Home | Current Version | Previous Version | Text Only | Print | Product List | Glossary Off
Versions: 1 2 3 4 5 6 7 8 9 10 11 12 13 14 15 16 17 18 19 20 21 22 23 24 25 26 27 28 29 30 31 32 33 34 35 36 37 38 39 40 41 42 43 44 45 46 47 48 49 50

000
NZUS59 KLOT 240003
HRRLOT

CHICAGO AREA WEATHER ROUNDUP
NATIONAL WEATHER SERVICE CHICAGO/ROMEOVILLE IL
700 PM CDT WED MAY 23 2018

NOTE: "FAIR" INDICATES FEW OR NO CLOUDS BELOW 12,000 FEET WITH NO
SIGNIFICANT WEATHER AND/OR OBSTRUCTIONS TO VISIBILITY.

* THESE STATIONS ARE NOT UNDER NWS QUALITY CONTROL. THEY ALSO MAY NOT
  REPORT WEATHER SUCH AS PRECIPITATION OR FOG.

ILZ005-006-012>014-019>023-240100-
NORTHEAST ILLINOIS

CITY           SKY/WX    TMP DP  RH WIND       PRES   REMARKS
OHARE            N/A     76  47  35 E9        30.14S
6HR MIN TEMP:  76; 6HR MAX TEMP:  80;

MIDWAY         PTSUNNY   72  50  45 E9        30.14F
6HR MIN TEMP:  72; 6HR MAX TEMP:  78;

AURORA           N/A     79  58  48 SE5       30.13S HX  80
6HR MIN TEMP:  75; 6HR MAX TEMP:  81;

LANSING*         N/A     69  51  51 NE9       30.15S
JOLIET*          N/A     79  53  39 NE10      30.13S
WAUKEGAN         N/A     66  51  58 E3        30.15S
6HR MIN TEMP:  66; 6HR MAX TEMP:  72;

DUPAGE AIRPORT   N/A     76  52  43 E7        30.13S
6HR MIN TEMP:  74; 6HR MAX TEMP:  81;

WHEELING         N/A     73  49  42 E5        30.16S
6HR MIN TEMP:  73; 6HR MAX TEMP:  79;

KANKAKEE*        N/A     77  52  41 E5        30.13S
MORRIS*          N/A     79  57  46 E3        30.11S HX  80
LEWIS AIRPORT*   N/A     76  51  41 E8        30.14S
NORTHERLY ISL    N/A     58  53  84 NE3         N/A
$$

WIZ051-052-058>065-066-070>072-240100-
SOUTHEAST WISCONSIN

CITY           SKY/WX    TMP DP  RH WIND       PRES   REMARKS
MILWAUKEE      PTSUNNY   70  48  45 SE9       30.15F
6HR MIN TEMP:  70; 6HR MAX TEMP:  76;

KENOSHA*         N/A     70  49  47 E6        30.16S
RACINE*          N/A     68  52  56 SE5       30.18S
BURLINGTON       N/A     74  56  52 E6        30.15S
WAUKESHA       SUNNY     73  55  53 S9        30.16S
WEST BEND        N/A     72  52  49 E5        30.15S
$$

INZ001>003-010>013-019-020-240100-
NORTHWEST INDIANA

CITY           SKY/WX    TMP DP  RH WIND       PRES   REMARKS
GARY*          MOSUNNY   64  57  77 N7        30.16S
MICHIGAN CITY* NOT AVBL
RENSSELAER*    NOT AVBL
VALPARAISO       N/A     77  57  50 N7        30.15S
$$

LMZ740>746-240100-
SOUTHERN LAKE MICHIGAN

STATION/POSITION TIME  SKY/WX   TEMP WIND        PRES    VSBY
                                AIR  DIR/SP/G
                 (UTC)          (F)  (DEG/KT/KT) (MB)    (MI)
HARRISON CRIB    2340            58   90/  6/  7   N/A
BURNHAM HARBOR   0000            58   50/  2/  4   N/A
CALUMET HARBOR   2330            58   40/  4/  6 1020.8S
BURNS HARBOR     2340            61   60/  7/  8 1021.7S
MICHIGAN CITY    2340            58   40/ 10/ 10   N/A
$$

ABBREVIATIONS USED IN REMARKS
   TC - TEMPERATURE IN CELSIUS
  WCI - WIND CHILL INDEX
   HX - HEAT INDEX
  VSB - VISIBILITY
$$




USA.gov is the U.S. government's official web portal to all federal, state and local government web resources and services.